Weather History for Santa Ana, CA

Change the Weather History Date:

Saturday, March 24, 2012

  Actual Average Record
Temperature  
Mean Temperature 59 °F 60 °F  
Max Temperature 65 °F 68 °F 82 °F (2008)
Min Temperature 53 °F 52 °F 45 °F (2011)
Degree Days  
Heating Degree Days 6 5  
Month to date heating degree days 142 144  
Since 1 July heating degree days 946 1050  
Cooling Degree Days 0 0  
Month to date cooling degree days 8 0  
Year to date cooling degree days 23 8  
Growing Degree Days 8 (Base 50)    
Moisture  
Dew Point 48 °F    
Average Humidity 70    
Maximum Humidity 83    
Minimum Humidity 56    
Precipitation  
Precipitation 0.00 in 0.03 in 0.93 in (1983)
Month to date precipitation 0.57 1.71  
Year to date precipitation 1.94 7.57  
Since 1 July precipitation 4.39 11.94  
Snow  
Snow 0.00 in - - ()
Month to date snowfall 0.0  
Year to date snowfall 0.0  
Since 1 July snowfall 0.0  
Snow Depth -    
Sea Level Pressure  
Sea Level Pressure 29.97 in    
Wind  
Wind Speed 4 mph (SSW)    
Max Wind Speed 16 mph    
Max Gust Speed 20 mph    
Visibility 10 miles    
Events      
T = Trace of Precipitation, MM = Missing Value Source: NWS Daily Summary

Daily Weather History Graph

Daily Weather History Graph

Search for Another Location

Airport:

Trip Planner

Search our weather history database for the weather conditions in past years. The results will help you decide how hot, cold, wet, or windy it might be!

Date:

Astronomy

Mar. 24, 2012 Rise Set
Actual Time 6:48 AM PDT 7:06 PM PDT
Civil Twilight 6:24 AM PDT 7:31 PM PDT
Nautical Twilight 5:54 AM PDT 8:00 PM PDT
Astronomical Twilight 5:25 AM PDT 8:30 PM PDT
Moon 7:38 AM PDT (3/24) 9:20 PM PDT (3/24)
Length of Visible Light 13h 07m
Length of Day
12h 17m
Waxing Crescent, 4% of the Moon is Illuminated
Mar 24
Waxing Crescent
Mar 30
First Quarter
Apr 6
Full
Apr 13
Last Quarter
Apr 21
New

Hourly Weather History & Observations

Time (PDT) Temp. Dew Point Humidity Pressure Visibility Wind Dir Wind Speed Gust Speed Precip Events Conditions
12:53 AM 53.1 °F 48.0 °F 83% 30.00 in 10.0 mi SSW 3.5 mph - N/A   Clear
1:53 AM 53.1 °F 48.9 °F 86% 30.00 in 10.0 mi Calm Calm - N/A   Mostly Cloudy
2:24 AM 53.6 °F 50.0 °F 88% 30.00 in 10.0 mi Calm Calm - N/A   Overcast
2:48 AM 55.4 °F 48.2 °F 77% 29.99 in 10.0 mi ESE 3.5 mph - N/A   Overcast
2:53 AM 54.0 °F 48.9 °F 83% 29.99 in 10.0 mi East 3.5 mph - N/A   Overcast
3:53 AM 55.0 °F 48.9 °F 80% 29.97 in 10.0 mi Calm Calm - N/A   Overcast
4:53 AM 55.0 °F 48.9 °F 80% 29.97 in 10.0 mi East 3.5 mph - N/A   Overcast
5:53 AM 55.0 °F 48.0 °F 77% 29.98 in 10.0 mi Calm Calm - N/A   Overcast
6:53 AM 55.9 °F 46.9 °F 72% 29.99 in 10.0 mi Calm Calm - N/A   Overcast
7:53 AM 55.9 °F 48.0 °F 75% 30.00 in 10.0 mi ENE 3.5 mph - N/A   Mostly Cloudy
8:53 AM 57.0 °F 48.9 °F 74% 30.01 in 10.0 mi Variable 3.5 mph - N/A   Overcast
9:53 AM 57.9 °F 46.9 °F 67% 30.01 in 10.0 mi Calm Calm - N/A   Mostly Cloudy
10:53 AM 59.0 °F 48.2 °F 67% 30.01 in 10.0 mi West 3.5 mph - N/A   Mostly Cloudy
11:40 AM 62.6 °F 46.4 °F 55% 29.99 in 10.0 mi South 4.6 mph - N/A   Mostly Cloudy
11:53 AM 63.0 °F 48.0 °F 58% 29.99 in 10.0 mi Variable 3.5 mph - N/A   Mostly Cloudy
12:53 PM 63.0 °F 48.0 °F 58% 29.98 in 10.0 mi SW 9.2 mph - N/A   Mostly Cloudy
1:53 PM 63.0 °F 46.9 °F 56% 29.96 in 10.0 mi SW 10.4 mph - N/A   Mostly Cloudy
2:53 PM 62.6 °F 46.4 °F 55% 29.94 in 10.0 mi SSW 11.5 mph - N/A   Mostly Cloudy
3:53 PM 62.1 °F 48.0 °F 60% 29.93 in 10.0 mi SW 12.7 mph - N/A   Mostly Cloudy
4:53 PM 61.0 °F 48.0 °F 62% 29.92 in 10.0 mi SSW 12.7 mph - N/A   Mostly Cloudy
5:53 PM 60.1 °F 48.9 °F 67% 29.93 in 10.0 mi SW 11.5 mph - N/A   Mostly Cloudy
6:53 PM 57.0 °F 48.0 °F 72% 29.93 in 10.0 mi SSW 9.2 mph - N/A   Scattered Clouds
7:53 PM 55.9 °F 48.0 °F 75% 29.94 in 10.0 mi SSW 5.8 mph - N/A   Partly Cloudy
8:53 PM 55.0 °F 48.9 °F 80% 29.95 in 10.0 mi South 5.8 mph - N/A   Partly Cloudy
9:47 PM 55.4 °F 48.2 °F 77% 29.95 in 10.0 mi SSW 3.5 mph - N/A   Mostly Cloudy
9:53 PM 55.0 °F 48.9 °F 80% 29.96 in 10.0 mi Calm Calm - N/A   Mostly Cloudy
10:48 PM 55.4 °F 48.2 °F 77% 29.97 in 10.0 mi Calm Calm - N/A   Scattered Clouds
10:53 PM 55.9 °F 48.9 °F 77% 29.97 in 10.0 mi Calm Calm - N/A   Scattered Clouds
11:08 PM 53.6 °F 48.2 °F 82% 29.97 in 10.0 mi SSW 3.5 mph - N/A   Mostly Cloudy
11:53 PM 55.0 °F 48.9 °F 80% 29.96 in 10.0 mi Calm Calm - N/A   Overcast